Wind_Speed
88 86 79 77 77 81 79 79 78 75 69 68 66 52 62 61 61 58 56 57 57 59 61 62 62 65 66 62 64 65 65 68 66 71 80 80 77 77 80 86 89 92 96
92 90 86 83 79 84 85 83 82 78 74 72 67 58 63 65 64 60 61 64 64 62 62 64 66 67 66 63 61 70 71 72 75 78 79 80 83 83 86 88 88 89 93
94 92 90 89 85 88 86 85 86 79 76 71 65 59 64 63 65 63 64 62 66 68 64 66 65 59 63 65 67 71 75 78 82 80 81 83 82 86 87 89 88 90 95
96 94 90 87 86 89 87 86 86 80 77 73 67 61 63 67 65 65 64 65 66 67 67 68 68 69 67 67 67 70 76 81 80 81 81 82 85 90 92 89 90 91 94
105 100 97 93 85 84 86 84 85 81 77 75 73 69 67 66 67 61 60 67 68 71 71 70 70 70 69 70 71 74 76 79 81 84 88 88 90 90 89 87 88 92 93
111 107 105 99 96 90 89 83 82 82 83 81 73 69 69 68 63 64 67 70 70 70 69 69 71 74 75 73 73 76 77 83 85 86 88 88 88 87 87 91 92 91 93
124 116 113 110 107 96 95 95 84 77 75 72 71 64 67 61 65 72 70 73 71 72 73 75 76 77 76 78 79 80 82 84 86 89 90 89 89 88 91 90 94 95 96
119 126 123 116 115 111 101 97 97 99 91 84 77 73 72 66 71 74 76 77 76 77 79 81 81 81 81 82 83 87 89 88 90 91 92 94 90 90 93 92 95 93 99
99 105 113 119 122 118 108 105 102 103 94 90 87 82 79 79 77 78 76 77 81 83 87 86 89 87 87 87 88 91 92 93 95 95 92 94 92 93 93 95 95 95 98
91 94 98 104 109 119 125 115 102 102 100 96 93 92 90 84 83 83 84 89 89 87 91 89 88 91 92 92 91 94 97 98 98 97 96 99 99 98 98 97 97 95 93
85 89 93 94 97 96 103 109 108 105 103 108 97 94 92 94 91 92 95 91 91 86 92 93 93 95 100 98 95 97 103 101 98 96 98 98 98 96 97 88 87 90 91
82 85 88 90 91 89 84 91 91 86 89 92 84 100 101 99 98 99 93 96 100 103 104 104 105 106 106 105 104 104 105 101 98 100 101 102 97 93 87 86 88 89 88
79 78 83 83 84 82 80 78 90 97 99 89 98 75 95 86 93 99 108 112 108 113 111 110 111 108 107 106 105 105 105 97 98 102 98 97 92 90 83 85 84 84 88
73 72 76 78 79 78 78 78 78 91 98 102 94 94 102 105 95 100 104 104 106 107 106 105 105 106 107 109 105 105 102 106 99 89 88 83 81 80 81 80 82 87 89
67 67 68 73 75 74 76 75 77 80 86 96 103 101 99 97 103 100 101 97 99 99 99 104 103 105 108 103 95 98 93 75 71 74 72 73 77 78 78 79 82 86 92
57 59 64 67 72 71 71 71 70 76 79 83 94 99 101 101 100 102 102 99 101 101 97 99 94 89 90 94 93 79 68 69 68 71 72 75 76 75 78 80 83 86 92
49 52 60 62 66 66 63 66 68 69 76 84 95 97 99 108 111 107 103 102 94 93 97 92 89 92 97 89 78 71 68 65 69 76 78 80 74 69 71 81 86 89 94
42 50 55 55 54 54 52 57 66 67 73 80 90 101 104 103 101 94 89 100 92 86 91 94 96 101 88 79 77 75 73 74 71 72 76 76 73 76 78 82 87 90 93
42 47 47 47 46 49 49 60 55 57 63 68 76 83 88 97 100 96 84 82 83 86 90 93 92 90 80 79 83 81 75 72 74 76 78 74 77 80 83 84 87 93 94
40 39 39 42 44 45 47 47 59 58 59 63 66 71 77 77 75 73 75 76 75 76 78 80 80 79 78 80 80 80 82 81 82 81 82 85 82 84 86 88 93 94 92
36 37 43 45 48 51 53 59 53 53 56 60 65 66 68 67 66 70 73 73 71 73 78 80 82 84 82 82 80 81 82 84 88 87 90 90 93 95 95 97 92 94 95
37 39 44 47 48 50 52 54 53 49 50 55 58 60 62 67 69 73 75 77 77 77 78 81 83 85 88 87 87 86 86 87 90 92 92 92 91 96 94 92 92 94 94
39 43 46 47 48 50 53 55 53 56 58 56 55 60 65 69 73 74 76 79 80 80 80 82 83 85 84 86 88 90 90 91 93 93 94 93 94 94 94 95 94 95 95
38 42 46 50 54 54 54 55 58 59 59 59 58 62 65 69 72 75 79 79 81 83 85 87 89 90 92 92 93 94 93 95 96 97 97 99 100 99 101 101 101 100 98
44 43 46 51 55 55 56 59 64 64 64 64 66 69 72 75 74 78 81 84 83 82 85 89 95 98 98 98 100 101 101 102 104 105 103 103 104 103 104 104 104 102 100
45 47 51 57 57 61 62 64 68 69 69 72 75 75 75 77 77 82 84 85 84 84 85 87 92 97 101 103 104 105 106 107 109 110 108 108 108 104 101 99 95 93 91
Wind_Direction
255 253 250 254 258 261 261 264 266 268 270 270 274 270 271 272 276 271 272 273 278 279 283 284 286 286 288 293 295 293 295 303 300 303 303 304 305 306 305 312 315 314 311
256 253 253 252 254 260 261 263 264 266 267 269 275 271 270 272 270 268 271 274 274 277 280 281 281 281 285 294 290 293 294 298 301 304 307 304 305 306 310 312 315 314 311
257 256 255 254 254 256 259 261 262 263 266 270 274 273 271 271 271 269 271 271 273 277 278 278 281 278 284 288 291 290 289 292 299 302 303 307 307 307 307 310 313 311 311
256 255 254 254 253 252 256 257 259 263 267 271 273 269 266 267 267 269 272 273 274 273 275 278 279 279 284 289 289 288 291 294 298 300 302 303 303 306 308 309 312 311 314
255 254 253 251 250 254 254 254 256 260 263 267 270 266 265 265 264 264 266 269 271 272 275 278 279 279 282 286 288 291 293 293 297 298 299 302 304 306 309 310 311 311 314
254 252 247 250 250 255 254 254 256 260 260 263 264 264 265 263 261 260 264 267 269 269 274 278 275 277 280 283 286 288 292 293 295 297 298 301 304 306 306 309 309 312 313
254 254 249 247 250 249 256 257 255 259 260 261 255 258 263 260 260 264 263 264 264 268 272 275 275 277 279 282 284 287 291 292 296 297 298 300 301 302 304 305 306 311 312
253 254 254 252 248 251 252 251 255 260 262 260 261 259 259 255 257 260 262 262 266 268 270 272 275 277 279 281 285 288 290 293 296 295 295 297 298 301 303 305 306 310 310
253 253 254 255 254 252 250 252 254 255 257 253 263 257 257 257 258 261 262 262 264 268 269 271 274 276 278 280 283 286 288 291 293 293 293 295 297 298 301 303 304 308 309
251 252 253 254 255 254 254 252 250 253 255 256 254 253 256 256 257 258 262 263 263 265 269 272 274 276 280 280 283 285 287 291 291 290 290 292 294 298 298 302 303 305 308
248 249 249 250 252 253 252 251 252 254 256 254 253 253 254 258 260 262 264 265 266 266 271 273 276 279 282 282 284 287 290 290 291 288 290 293 295 298 299 301 302 306 305
246 245 247 249 249 251 252 249 247 239 240 254 259 257 258 260 262 259 261 263 266 268 270 272 275 277 281 282 283 285 288 288 285 288 291 292 295 298 296 299 301 303 304
244 242 245 245 248 248 249 246 242 242 240 243 253 247 257 257 259 262 262 263 265 267 269 269 274 279 279 279 282 284 287 286 288 290 290 292 292 294 296 301 301 301 304
247 242 242 244 245 246 246 245 243 238 240 243 244 244 254 261 258 258 261 261 264 268 271 271 273 275 277 280 282 283 284 287 293 290 289 287 290 292 297 299 300 303 304
244 244 240 242 243 244 245 243 242 242 240 239 239 243 240 241 248 255 262 262 265 264 265 270 272 274 275 279 280 281 284 284 280 287 287 287 289 291 296 298 300 301 303
244 242 241 239 240 241 242 244 242 240 240 240 235 235 239 246 250 257 261 259 264 270 273 270 274 276 278 281 285 279 275 273 278 281 287 290 292 293 294 296 297 298 303
242 239 239 238 239 241 241 242 243 240 237 236 237 239 243 248 251 256 255 261 266 266 267 272 273 276 283 278 270 265 266 274 278 278 283 289 293 290 290 290 295 298 302
237 236 237 240 240 240 240 240 238 238 237 236 236 236 242 248 252 255 260 259 263 264 265 269 271 276 270 269 263 264 268 273 278 280 284 288 287 290 293 296 298 301 303
230 232 234 236 235 235 230 236 242 241 239 243 244 243 244 246 251 255 256 259 262 264 266 267 266 264 264 264 265 269 273 275 278 280 283 285 288 289 292 295 297 302 304
226 231 229 229 228 230 233 227 237 239 240 238 239 240 242 245 248 253 257 260 259 261 260 261 259 260 260 266 266 270 275 273 278 280 282 285 287 289 291 295 297 301 305
223 220 224 225 226 227 226 229 237 239 239 242 244 243 244 246 248 251 253 255 255 256 257 258 260 264 268 267 271 273 275 277 279 282 281 284 287 291 296 297 297 298 303
216 217 222 228 228 226 231 233 233 242 242 242 243 243 244 245 248 250 253 255 256 256 258 259 261 263 263 266 269 272 274 277 280 282 284 285 289 291 294 295 295 300 303
218 216 221 225 230 231 231 233 230 236 243 243 244 244 245 247 248 251 253 254 256 257 258 261 263 264 267 269 271 272 274 277 280 282 284 286 288 289 292 293 295 298 299
222 225 223 222 226 230 231 236 241 244 244 245 249 251 252 253 255 254 255 258 260 261 261 260 263 266 268 270 273 274 277 278 280 282 283 284 286 288 290 294 294 294 300
227 229 225 224 226 226 229 233 239 248 251 250 251 253 253 256 261 261 261 263 267 266 263 262 264 266 268 270 272 274 276 276 277 280 282 283 285 288 289 293 294 294 296
232 234 230 229 232 233 235 238 241 245 249 252 255 257 259 259 261 263 264 265 267 267 266 264 264 265 266 268 271 273 274 275 277 279 283 285 286 287 289 291 292 292 293
Height
10620 10628 10635 10639 10642 10641 10645 10643 10644 10645 10652 10654 10659 10667 10665 10665 10665 10664 10661 10657 10653 10650 10648 10645 10643 10639 10633 10627 10623 10617 10612 10605 10598 10593 10586 10577 10569 10562 10553 10547 10540 10530 10520
10595 10605 10613 10619 10622 10620 10623 10624 10625 10632 10635 10637 10643 10650 10649 10647 10647 10647 10645 10643 10640 10638 10635 10632 10628 10624 10620 10614 10609 10605 10599 10594 10587 10581 10574 10565 10558 10549 10543 10534 10527 10517 10506
10567 10578 10588 10596 10601 10598 10603 10607 10606 10613 10617 10621 10628 10630 10630 10630 10627 10628 10627 10625 10623 10622 10619 10616 10614 10608 10605 10602 10597 10592 10586 10581 10577 10569 10561 10554 10546 10538 10530 10522 10512 10501 10490
10541 10550 10560 10568 10577 10578 10583 10588 10586 10592 10601 10603 10607 10610 10611 10610 10608 10609 10609 10606 10605 10604 10603 10600 10598 10595 10590 10586 10583 10579 10575 10569 10562 10554 10546 10539 10533 10524 10515 10505 10494 10486 10474
10511 10521 10532 10540 10552 10556 10561 10566 10569 10575 10583 10586 10589 10591 10592 10592 10592 10594 10591 10590 10588 10587 10585 10584 10580 10578 10573 10570 10568 10565 10560 10554 10548 10541 10533 10525 10517 10510 10502 10492 10483 10469 10458
10476 10487 10500 10508 10523 10535 10538 10544 10550 10556 10564 10568 10572 10574 10575 10575 10576 10575 10572 10570 10569 10568 10569 10566 10564 10560 10558 10554 10551 10547 10544 10539 10533 10526 10518 10509 10502 10494 10486 10478 10469 10459 10449
10444 10452 10464 10479 10491 10507 10515 10519 10527 10534 10542 10548 10553 10554 10555 10557 10557 10556 10554 10551 10551 10553 10551 10547 10545 10541 10540 10538 10534 10531 10526 10521 10516 10509 10503 10495 10488 10480 10471 10462 10454 10446 10437
10412 10421 10429 10443 10460 10474 10487 10492 10499 10507 10516 10526 10531 10534 10536 10537 10537 10536 10535 10533 10534 10533 10531 10529 10525 10523 10521 10519 10517 10514 10509 10505 10499 10494 10488 10480 10471 10463 10455 10448 10438 10427 10417
10382 10390 10398 10407 10424 10439 10454 10466 10474 10481 10492 10500 10508 10513 10515 10516 10517 10518 10515 10513 10512 10515 10508 10509 10507 10504 10502 10500 10497 10495 10491 10486 10481 10475 10469 10463 10455 10448 10440 10433 10427 10419 10405
10357 10364 10369 10377 10388 10404 10417 10439 10446 10458 10465 10475 10480 10486 10492 10494 10495 10495 10493 10490 10492 10496 10490 10488 10488 10485 10483 10482 10480 10477 10472 10468 10461 10456 10450 10444 10437 10431 10424 10418 10411 10403 10396
10332 10338 10342 10350 10359 10370 10386 10405 10422 10437 10442 10443 10458 10464 10468 10472 10473 10471 10468 10471 10468 10473 10465 10468 10469 10467 10463 10465 10463 10458 10454 10448 10443 10436 10430 10424 10418 10413 10408 10403 10397 10388 10377
10304 10312 10318 10324 10335 10347 10360 10377 10399 10413 10415 10426 10431 10439 10444 10447 10448 10443 10446 10446 10447 10448 10449 10449 10447 10447 10444 10444 10442 10438 10434 10429 10423 10418 10411 10405 10399 10396 10391 10387 10382 10376 10366
10279 10289 10294 10303 10311 10324 10336 10352 10373 10384 10393 10403 10411 10417 10416 10424 10415 10418 10424 10424 10424 10425 10428 10427 10426 10426 10425 10423 10420 10416 10413 10409 10404 10398 10393 10388 10382 10379 10374 10371 10363 10359 10350
10254 10265 10274 10281 10289 10300 10312 10328 10342 10362 10369 10378 10390 10393 10391 10394 10392 10393 10396 10401 10403 10405 10404 10404 10406 10404 10404 10402 10400 10396 10393 10390 10385 10380 10374 10369 10366 10363 10358 10353 10345 10340 10332
10233 10244 10255 10261 10269 10279 10289 10303 10318 10332 10346 10355 10361 10367 10366 10366 10367 10372 10378 10381 10381 10383 10384 10385 10386 10383 10382 10381 10379 10377 10372 10368 10365 10361 10356 10352 10350 10348 10344 10337 10330 10323 10315
10215 10226 10233 10242 10250 10260 10271 10282 10295 10307 10317 10327 10334 10337 10344 10348 10349 10355 10358 10360 10360 10363 10361 10361 10364 10363 10362 10358 10357 10355 10352 10350 10347 10344 10340 10338 10336 10334 10329 10322 10314 10308 10303
10200 10208 10214 10224 10233 10243 10255 10265 10276 10287 10298 10305 10310 10312 10322 10323 10328 10335 10339 10339 10341 10339 10338 10341 10342 10341 10343 10339 10337 10333 10332 10331 10329 10326 10323 10322 10321 10317 10311 10306 10300 10296 10291
10185 10190 10198 10209 10221 10232 10243 10247 10255 10265 10274 10282 10290 10296 10302 10305 10308 10313 10316 10319 10318 10317 10320 10320 10320 10324 10320 10317 10315 10315 10314 10313 10311 10308 10306 10305 10302 10300 10296 10291 10286 10280 10275
10171 10178 10188 10199 10208 10217 10228 10229 10241 10249 10258 10265 10270 10277 10282 10285 10288 10292 10294 10295 10297 10298 10299 10298 10299 10298 10299 10297 10298 10297 10298 10297 10294 10292 10290 10287 10286 10283 10279 10275 10269 10264 10259
10163 10172 10181 10187 10194 10202 10210 10220 10228 10232 10239 10244 10250 10256 10262 10264 10266 10269 10271 10274 10277 10279 10277 10278 10277 10278 10278 10279 10279 10278 10279 10278 10276 10275 10274 10270 10265 10265 10262 10260 10253 10247 10243
10155 10163 10168 10175 10183 10189 10197 10202 10212 10217 10222 10227 10229 10234 10237 10242 10246 10249 10252 10255 10258 10258 10258 10259 10260 10260 10261 10259 10260 10259 10258 10257 10256 10254 10252 10251 10248 10245 10243 10242 10235 10231 10227
10148 10156 10160 10166 10172 10179 10185 10192 10198 10201 10206 10211 10214 10217 10221 10223 10227 10230 10234 10236 10238 10238 10237 10238 10238 10238 10238 10238 10237 10237 10237 10237 10235 10233 10233 10231 10230 10226 10223 10220 10217 10215 10211
10141 10146 10152 10158 10164 10170 10175 10180 10186 10188 10191 10195 10198 10201 10204 10206 10207 10210 10212 10213 10214 10215 10215 10216 10216 10215 10216 10216 10215 10214 10214 10214 10212 10212 10211 10210 10207 10204 10202 10200 10199 10198 10195
10136 10141 10146 10151 10155 10160 10165 10169 10172 10174 10177 10179 10182 10184 10185 10187 10188 10190 10189 10190 10191 10192 10193 10193 10192 10193 10191 10191 10191 10190 10191 10190 10189 10189 10187 10185 10183 10182 10179 10179 10176 10175 10175
10127 10131 10137 10141 10144 10147 10151 10154 10157 10158 10160 10162 10164 10165 10165 10166 10166 10166 10167 10167 10168 10167 10167 10167 10168 10167 10166 10167 10167 10166 10166 10165 10162 10161 10161 10161 10160 10159 10156 10154 10152 10151 10151
10123 10125 10128 10130 10132 10134 10136 10139 10140 10140 10141 10142 10142 10143 10144 10145 10145 10144 10144 10143 10143 10143 10142 10142 10140 10140 10140 10139 10139 10139 10138 10137 10136 10135 10135 10135 10134 10135 10132 10130 10127 10125 10125